Time,TemperatureF,DewpointF,PressureIn,WindDirection,WindDirectionDegrees,WindSpeedMPH,WindSpeedGustMPH,Humidity,HourlyPrecipIn,Conditions,Clouds,dailyrainin,SoftwareType,DateUTC
2013-07-07 00:03:00,77.5,-30.3,30.06,SW,225,3.2,-999.0,1,-99.99,,,0.00,Acu-Link.com,2013-07-07 04:03:00,
2013-07-07 00:20:00,77.4,-30.4,30.06,WSW,247,4.2,-999.0,1,-99.99,,,0.00,Acu-Link.com,2013-07-07 04:20:00,
2013-07-07 00:36:00,77.2,-30.5,30.06,WSW,247,4.7,-999.0,1,-99.99,,,0.00,Acu-Link.com,2013-07-07 04:36:00,
2013-07-07 00:51:00,77.0,-30.6,30.05,WSW,247,5.8,-999.0,1,-99.99,,,0.00,Acu-Link.com,2013-07-07 04:51:00,
2013-07-07 01:06:00,77.0,-30.6,30.05,West,270,3.7,-999.0,1,-99.99,,,0.00,Acu-Link.com,2013-07-07 05:06:00,
2013-07-07 01:22:00,77.0,-30.6,30.05,WSW,247,3.7,-999.0,1,-99.99,,,0.00,Acu-Link.com,2013-07-07 05:22:00,
2013-07-07 01:37:00,77.4,-30.4,30.04,West,270,3.2,-999.0,1,-99.99,,,0.00,Acu-Link.com,2013-07-07 05:37:00,
2013-07-07 01:52:00,77.5,-30.3,30.04,NNW,337,3.2,-999.0,1,-99.99,,,0.00,Acu-Link.com,2013-07-07 05:52:00,
2013-07-07 02:08:00,77.9,-30.1,30.04,NNW,337,4.7,-999.0,1,-99.99,,,0.00,Acu-Link.com,2013-07-07 06:08:00,
2013-07-07 02:23:00,77.7,-30.2,30.03,NNW,337,3.2,-999.0,1,-99.99,,,0.00,Acu-Link.com,2013-07-07 06:23:00,
2013-07-07 02:39:00,77.9,-30.1,30.03,WNW,292,3.7,-999.0,1,-99.99,,,0.00,Acu-Link.com,2013-07-07 06:39:00,
2013-07-07 02:54:00,77.5,-30.3,30.04,West,270,4.2,-999.0,1,-99.99,,,0.00,Acu-Link.com,2013-07-07 06:54:00,
2013-07-07 03:10:00,77.7,-30.2,30.03,NNW,337,2.7,-999.0,1,-99.99,,,0.00,Acu-Link.com,2013-07-07 07:10:00,
2013-07-07 03:28:00,78.4,-29.8,30.03,NW,315,3.2,-999.0,1,-99.99,,,0.00,Acu-Link.com,2013-07-07 07:28:00,
2013-07-07 03:43:00,77.9,-30.1,30.03,West,270,7.3,-999.0,1,-99.99,,,0.00,Acu-Link.com,2013-07-07 07:43:00,
2013-07-07 04:00:00,77.5,-30.3,30.02,West,270,4.2,-999.0,1,-99.99,,,0.00,Acu-Link.com,2013-07-07 08:00:00,
2013-07-07 04:16:00,77.5,-30.3,30.03,West,270,5.8,-999.0,1,-99.99,,,0.00,Acu-Link.com,2013-07-07 08:16:00,
2013-07-07 04:31:00,77.4,-30.4,30.02,West,270,4.2,-999.0,1,-99.99,,,0.00,Acu-Link.com,2013-07-07 08:31:00,
2013-07-07 04:46:00,77.5,-30.3,30.02,West,270,4.7,-999.0,1,-99.99,,,0.00,Acu-Link.com,2013-07-07 08:46:00,
2013-07-07 05:03:00,77.5,-30.3,30.02,South,180,5.3,-999.0,1,-99.99,,,0.00,Acu-Link.com,2013-07-07 09:03:00,
2013-07-07 05:18:00,77.5,-30.3,30.02,SSW,202,3.2,-999.0,1,-99.99,,,0.00,Acu-Link.com,2013-07-07 09:18:00,
2013-07-07 05:33:00,77.9,-30.1,30.02,WNW,292,3.2,-999.0,1,-99.99,,,0.00,Acu-Link.com,2013-07-07 09:33:00,
2013-07-07 05:51:00,78.1,-30.0,30.03,West,270,5.8,-999.0,1,-99.99,,,0.00,Acu-Link.com,2013-07-07 09:51:00,
2013-07-07 06:06:00,78.1,-30.0,30.03,West,270,3.2,-999.0,1,-99.99,,,0.00,Acu-Link.com,2013-07-07 10:06:00,
2013-07-07 06:21:00,78.1,-30.0,30.03,South,180,4.2,-999.0,1,-99.99,,,0.00,Acu-Link.com,2013-07-07 10:21:00,
2013-07-07 06:36:00,78.3,-29.9,30.03,SW,225,4.7,-999.0,1,-99.99,,,0.00,Acu-Link.com,2013-07-07 10:36:00,
2013-07-07 06:52:00,79.0,-29.4,30.03,SW,225,4.7,-999.0,1,-99.99,,,0.00,Acu-Link.com,2013-07-07 10:52:00,
2013-07-07 07:08:00,79.2,-29.3,30.03,WSW,247,4.7,-999.0,1,-99.99,,,0.00,Acu-Link.com,2013-07-07 11:08:00,
2013-07-07 07:23:00,79.5,-29.1,30.03,West,270,3.2,-999.0,1,-99.99,,,0.00,Acu-Link.com,2013-07-07 11:23:00,
2013-07-07 07:38:00,80.6,-28.5,30.03,WNW,292,6.3,-999.0,1,-99.99,,,0.00,Acu-Link.com,2013-07-07 11:38:00,
2013-07-07 07:54:00,82.2,-27.5,30.04,West,270,5.8,-999.0,1,-99.99,,,0.00,Acu-Link.com,2013-07-07 11:54:00,
2013-07-07 08:09:00,82.2,-27.5,30.04,WNW,292,5.8,-999.0,1,-99.99,,,0.00,Acu-Link.com,2013-07-07 12:09:00,
2013-07-07 08:24:00,84.0,-26.5,30.03,WSW,247,5.3,-999.0,1,-99.99,,,0.00,Acu-Link.com,2013-07-07 12:24:00,
2013-07-07 08:39:00,86.2,-25.2,30.03,SW,225,2.7,-999.0,1,-99.99,,,0.00,Acu-Link.com,2013-07-07 12:39:00,
2013-07-07 08:54:00,85.1,-25.8,30.03,South,180,6.3,-999.0,1,-99.99,,,0.00,Acu-Link.com,2013-07-07 12:54:00,
2013-07-07 09:10:00,85.6,-25.5,30.03,SSW,202,4.7,-999.0,1,-99.99,,,0.00,Acu-Link.com,2013-07-07 13:10:00,
2013-07-07 09:25:00,85.6,-25.5,30.02,West,270,5.8,-999.0,1,-99.99,,,0.00,Acu-Link.com,2013-07-07 13:25:00,
2013-07-07 09:40:00,87.3,76.7,30.02,SW,225,7.8,-999.0,71,-99.99,,,0.00,Acu-Link.com,2013-07-07 13:40:00,
2013-07-07 09:55:00,87.3,78.0,30.02,West,270,4.2,-999.0,74,-99.99,,,0.00,Acu-Link.com,2013-07-07 13:55:00,
2013-07-07 10:10:00,87.6,32.5,30.02,WSW,247,6.3,-999.0,14,-99.99,,,0.00,Acu-Link.com,2013-07-07 14:10:00,
2013-07-07 10:26:00,88.7,-23.7,30.02,South,180,5.8,-999.0,1,-99.99,,,0.00,Acu-Link.com,2013-07-07 14:26:00,
2013-07-07 10:41:00,88.7,-23.7,30.02,WNW,292,3.2,-999.0,1,-99.99,,,0.00,Acu-Link.com,2013-07-07 14:41:00,
2013-07-07 10:56:00,90.5,-22.6,30.02,WSW,247,6.8,-999.0,1,-99.99,,,0.00,Acu-Link.com,2013-07-07 14:56:00,
2013-07-07 11:11:00,90.0,-22.9,30.01,SW,225,4.7,-999.0,1,-99.99,,,0.00,Acu-Link.com,2013-07-07 15:11:00,
2013-07-07 11:26:00,91.0,-22.3,30.00,SSW,202,5.8,-999.0,1,-99.99,,,0.00,Acu-Link.com,2013-07-07 15:26:00,
2013-07-07 11:41:00,90.9,-22.4,30.02,SW,225,7.8,-999.0,1,-99.99,,,0.00,Acu-Link.com,2013-07-07 15:41:00,
2013-07-07 11:57:00,90.9,-22.4,30.01,SSW,202,7.3,-999.0,1,-99.99,,,0.00,Acu-Link.com,2013-07-07 15:57:00,
2013-07-07 12:12:00,91.4,-22.1,30.01,SW,225,9.9,-999.0,1,-99.99,,,0.00,Acu-Link.com,2013-07-07 16:12:00,
2013-07-07 12:27:00,92.5,-21.4,30.00,West,270,5.8,-999.0,1,-99.99,,,0.00,Acu-Link.com,2013-07-07 16:27:00,
2013-07-07 12:42:00,90.9,-22.4,30.00,ESE,112,9.4,-999.0,1,-99.99,,,0.00,Acu-Link.com,2013-07-07 16:42:00,
2013-07-07 12:57:00,90.9,-22.4,30.00,South,180,5.8,-999.0,1,-99.99,,,0.00,Acu-Link.com,2013-07-07 16:57:00,
2013-07-07 13:13:00,91.8,-21.9,30.00,South,180,9.4,-999.0,1,-99.99,,,0.00,Acu-Link.com,2013-07-07 17:13:00,
2013-07-07 13:28:00,91.6,-22.0,29.99,South,180,10.9,-999.0,1,-99.99,,,0.00,Acu-Link.com,2013-07-07 17:28:00,
2013-07-07 13:43:00,92.1,-21.7,29.99,South,180,11.9,-999.0,1,-99.99,,,0.00,Acu-Link.com,2013-07-07 17:43:00,
2013-07-07 13:58:00,91.8,-21.9,29.98,South,180,7.8,-999.0,1,-99.99,,,0.00,Acu-Link.com,2013-07-07 17:58:00,
2013-07-07 14:13:00,92.5,-21.4,29.98,WSW,247,7.8,-999.0,1,-99.99,,,0.00,Acu-Link.com,2013-07-07 18:13:00,
2013-07-07 14:29:00,92.1,-21.7,29.98,SW,225,7.8,-999.0,1,-99.99,,,0.00,Acu-Link.com,2013-07-07 18:29:00,
2013-07-07 14:44:00,93.0,-21.2,29.97,SSW,202,3.7,-999.0,1,-99.99,,,0.00,Acu-Link.com,2013-07-07 18:44:00,
2013-07-07 14:59:00,91.4,-22.1,29.97,South,180,4.7,-999.0,1,-99.99,,,0.00,Acu-Link.com,2013-07-07 18:59:00,
2013-07-07 15:14:00,92.5,-21.4,29.96,SSW,202,9.9,-999.0,1,-99.99,,,0.00,Acu-Link.com,2013-07-07 19:14:00,
2013-07-07 15:29:00,93.0,-21.2,29.96,SSW,202,7.3,-999.0,1,-99.99,,,0.00,Acu-Link.com,2013-07-07 19:29:00,
2013-07-07 15:45:00,91.0,-22.3,29.95,WSW,247,9.4,-999.0,1,-99.99,,,0.00,Acu-Link.com,2013-07-07 19:45:00,
2013-07-07 16:00:00,91.2,-22.2,29.96,South,180,6.8,-999.0,1,-99.99,,,0.00,Acu-Link.com,2013-07-07 20:00:00,
2013-07-07 16:15:00,90.3,-22.7,29.95,SSE,157,8.9,-999.0,1,-99.99,,,0.00,Acu-Link.com,2013-07-07 20:15:00,
2013-07-07 16:30:00,90.5,-22.6,29.94,SSE,157,6.8,-999.0,1,-99.99,,,0.00,Acu-Link.com,2013-07-07 20:30:00,
2013-07-07 16:45:00,91.2,-22.2,29.94,SSW,202,5.8,-999.0,1,-99.99,,,0.00,Acu-Link.com,2013-07-07 20:45:00,
2013-07-07 17:01:00,90.3,-22.7,29.94,SW,225,4.7,-999.0,1,-99.99,,,0.00,Acu-Link.com,2013-07-07 21:01:00,
2013-07-07 17:16:00,90.5,-22.6,29.93,SW,225,10.4,-999.0,1,-99.99,,,0.00,Acu-Link.com,2013-07-07 21:16:00,
2013-07-07 17:31:00,91.2,-22.2,29.92,South,180,7.8,-999.0,1,-99.99,,,0.00,Acu-Link.com,2013-07-07 21:31:00,
2013-07-07 17:46:00,89.4,-23.3,29.92,SSE,157,6.3,-999.0,1,-99.99,,,0.00,Acu-Link.com,2013-07-07 21:46:00,
2013-07-07 18:01:00,91.4,-22.1,29.94,West,270,5.8,-999.0,1,-99.99,,,0.00,Acu-Link.com,2013-07-07 22:01:00,
2013-07-07 18:16:00,90.9,-22.4,29.93,West,270,6.8,-999.0,1,-99.99,,,0.00,Acu-Link.com,2013-07-07 22:16:00,
2013-07-07 18:32:00,89.4,-23.3,29.94,West,270,3.7,-999.0,1,-99.99,,,0.00,Acu-Link.com,2013-07-07 22:32:00,
2013-07-07 18:47:00,90.7,-22.5,29.94,West,270,8.3,-999.0,1,-99.99,,,0.00,Acu-Link.com,2013-07-07 22:47:00,
2013-07-07 19:02:00,90.0,-22.9,29.95,SSW,202,4.2,-999.0,1,-99.99,,,0.00,Acu-Link.com,2013-07-07 23:02:00,
2013-07-07 19:18:00,88.9,-23.6,29.94,South,180,7.8,-999.0,1,-99.99,,,0.00,Acu-Link.com,2013-07-07 23:18:00,
2013-07-07 19:33:00,88.3,-23.9,29.95,SSW,202,4.2,-999.0,1,-99.99,,,0.00,Acu-Link.com,2013-07-07 23:33:00,
2013-07-07 19:49:00,87.1,-24.6,29.94,South,180,3.7,-999.0,1,-99.99,,,0.00,Acu-Link.com,2013-07-07 23:49:00,
2013-07-07 20:04:00,85.8,-25.4,29.95,South,180,3.7,-999.0,1,-99.99,,,0.00,Acu-Link.com,2013-07-08 00:04:00,
2013-07-07 20:19:00,84.9,82.6,29.95,SSE,157,5.8,-999.0,93,-99.99,,,0.00,Acu-Link.com,2013-07-08 00:19:00,
2013-07-07 20:34:00,84.0,83.4,29.96,SSE,157,4.7,-999.0,98,-99.99,,,0.00,Acu-Link.com,2013-07-08 00:34:00,
2013-07-07 20:50:00,84.0,-13.2,29.96,SSE,157,2.2,-999.0,2,-99.99,,,0.00,Acu-Link.com,2013-07-08 00:50:00,
2013-07-07 21:05:00,83.7,-26.6,29.96,SSE,157,4.2,-999.0,1,-99.99,,,0.00,Acu-Link.com,2013-07-08 01:05:00,
2013-07-07 21:20:00,83.5,-26.8,29.97,ESE,112,5.8,-999.0,1,-99.99,,,0.00,Acu-Link.com,2013-07-08 01:20:00,
2013-07-07 21:35:00,82.8,-27.2,29.96,SSE,157,4.7,-999.0,1,-99.99,,,0.00,Acu-Link.com,2013-07-08 01:35:00,
2013-07-07 21:51:00,82.4,-27.4,29.97,SSE,157,4.7,-999.0,1,-99.99,,,0.00,Acu-Link.com,2013-07-08 01:51:00,
2013-07-07 22:06:00,82.0,-27.7,29.97,SSE,157,3.7,-999.0,1,-99.99,,,0.00,Acu-Link.com,2013-07-08 02:06:00,
2013-07-07 22:21:00,81.7,-27.8,29.97,South,180,2.7,-999.0,1,-99.99,,,0.00,Acu-Link.com,2013-07-08 02:21:00,
2013-07-07 22:36:00,81.7,-27.8,29.96,South,180,2.2,-999.0,1,-99.99,,,0.00,Acu-Link.com,2013-07-08 02:36:00,
2013-07-07 22:51:00,81.5,-27.9,29.96,SSW,202,4.7,-999.0,1,-99.99,,,0.00,Acu-Link.com,2013-07-08 02:51:00,
2013-07-07 23:06:00,81.3,-28.1,29.96,South,180,3.7,-999.0,1,-99.99,,,0.00,Acu-Link.com,2013-07-08 03:06:00,
2013-07-07 23:22:00,81.0,-28.2,29.96,ESE,112,2.7,-999.0,1,-99.99,,,0.00,Acu-Link.com,2013-07-08 03:22:00,
2013-07-07 23:37:00,80.6,-28.5,29.97,ESE,112,2.2,-999.0,1,-99.99,,,0.00,Acu-Link.com,2013-07-08 03:37:00,
2013-07-07 23:52:00,80.1,-28.8,29.97,NW,315,5.3,-999.0,1,-99.99,,,0.00,Acu-Link.com,2013-07-08 03:52:00,